TimeEST,TemperatureF,Dew PointF,Humidity,Sea Level PressureIn,VisibilityMPH,Wind Direction,Wind SpeedMPH,Gust SpeedMPH,PrecipitationIn,Events,Conditions,WindDirDegrees,DateUTC
12:53 AM,37.0,28.9,73,29.94,10.0,East,5.8,-,N/A,,Overcast,100,2012-11-07 05:53:00
1:53 AM,37.0,28.9,73,29.94,10.0,East,5.8,-,N/A,,Overcast,90,2012-11-07 06:53:00
2:53 AM,37.0,28.9,73,29.95,9.0,East,6.9,-,N/A,,Overcast,80,2012-11-07 07:53:00
3:53 AM,37.0,30.0,76,29.95,9.0,East,8.1,-,N/A,,Overcast,80,2012-11-07 08:53:00
4:53 AM,37.0,30.9,79,29.96,7.0,East,10.4,-,0.00,Rain,Light Rain,80,2012-11-07 09:53:00
5:53 AM,36.0,30.0,79,29.98,8.0,ENE,6.9,-,0.00,,Overcast,70,2012-11-07 10:53:00
6:53 AM,36.0,30.0,79,29.99,7.0,NE,5.8,-,N/A,,Overcast,50,2012-11-07 11:53:00
7:53 AM,35.1,30.9,85,30.01,5.0,NE,5.8,-,N/A,,Scattered Clouds,40,2012-11-07 12:53:00
8:53 AM,37.0,32.0,82,30.04,5.0,ENE,6.9,-,N/A,,Haze,70,2012-11-07 13:53:00
9:53 AM,39.9,33.1,77,30.05,7.0,ENE,6.9,-,N/A,,Clear,70,2012-11-07 14:53:00
10:53 AM,43.0,34.0,71,30.07,10.0,East,6.9,-,N/A,,Clear,80,2012-11-07 15:53:00
11:53 AM,46.0,33.1,61,30.06,10.0,NE,9.2,-,N/A,,Partly Cloudy,50,2012-11-07 16:53:00
12:53 PM,48.0,32.0,54,30.06,10.0,NE,4.6,-,N/A,,Partly Cloudy,50,2012-11-07 17:53:00
1:53 PM,48.0,30.9,52,30.06,10.0,ENE,5.8,-,N/A,,Clear,60,2012-11-07 18:53:00
2:53 PM,48.9,30.0,48,30.05,10.0,NE,9.2,-,N/A,,Clear,40,2012-11-07 19:53:00
3:53 PM,48.9,30.0,48,30.06,10.0,NNE,5.8,-,N/A,,Clear,20,2012-11-07 20:53:00
4:53 PM,46.9,28.9,50,30.09,10.0,North,8.1,-,N/A,,Clear,10,2012-11-07 21:53:00
5:53 PM,44.1,28.9,55,30.10,10.0,NE,3.5,-,N/A,,Clear,40,2012-11-07 22:53:00
6:53 PM,37.9,28.9,70,30.12,10.0,Calm,Calm,-,N/A,,Clear,0,2012-11-07 23:53:00
7:53 PM,35.1,28.0,76,30.13,10.0,Calm,Calm,-,N/A,,Clear,0,2012-11-08 00:53:00
8:53 PM,34.0,28.0,79,30.14,9.0,Calm,Calm,-,N/A,,Clear,0,2012-11-08 01:53:00
9:53 PM,33.1,28.0,82,30.16,7.0,Calm,Calm,-,N/A,,Clear,0,2012-11-08 02:53:00
10:53 PM,32.0,27.0,82,30.16,6.0,Calm,Calm,-,N/A,,Haze,0,2012-11-08 03:53:00
11:53 PM,30.0,26.1,85,30.16,6.0,Calm,Calm,-,N/A,,Clear,0,2012-11-08 04:53:00